sat.trackr.live / text

‹ back to catalog

ONEWEB-0689

NORAD 61597 · 2024-188D

PAYLOAD ACTIVE UNKNOWN

§ Identity

Operator
Country
UK
Launch date
2024-10-20
Launch site
AFWTR
Launch vehicle
Mass (kg)
RCS (m²)

Purposes: comms

External: N2YO · Heavens-Above · Gunter

§ Orbital elements

Epoch: 2026-05-25T03:34:46.651584Z

Period
109.80 min
Inclination
87.8928°
Eccentricity
0.0001725
Mean motion
13.11416045 rev/d
Perigee alt
1,216.4 km
Apogee alt
1,219.0 km
Semi-major
7,595.8 km
B*
-1.1441e-3
RAAN
25.6313°
Arg perigee
92.4504°
Mean anomaly
267.6821°
Rev number
8,143

§ Raw data

ONEWEB-06891 61597U 24188D   26145.14915106 -.00000393  00000+0 -11441-2 0  99952 61597  87.8928  25.6313 0001725  92.4504 267.6821 13.11416045 81435

JSON: /api/v1/satellites/61597 · /tle

For live sub-satellite position, see the globe view (requires WebGL).

§ Visibility from observer

Set your observer location to see the next 7 days of passes ≥ 10°. The values pass through the URL so the page stays shareable.

No JS? Fill the form by hand. The geolocation button needs JavaScript.